디시인사이드 갤러리

리듬게임 갤러리

갤러리 이슈박스, 최근방문 갤러리

갤러리 본문 영역

에버라 배치보는법

YUM갤로그로 이동합니다. 2020.07.03 18:30:26
조회 95 추천 0 댓글 1
							

채보가 롱잡 동시치기 등 까다로운 구간이 한두 군데가 아니긴 한데

딱 보니 흰건반(1357) 배치를 빨리 알 수 있고, 후살에 영향이 꽤 커 보여서 초고수님덜 참고하시라고 만들어봄


각각 첫노트, 중반 빰빰빰빰계단, 후살구간만 잘라서 올립니다



1. 정배


viewimage.php?id=3fb5c932eddf3fa763ba&no=24b0d769e1d32ca73ded8ffa11d028313550f9fb3f9dac8b24082c81cb595a440dc36ddc8dce7b650cd120063f6961d562cf2c66b6ac7c42129d8333168167657cb4422ee53b




2. 유타카가 좋아하는 흰건반 1237 분할


viewimage.php?id=3fb5c932eddf3fa763ba&no=24b0d769e1d32ca73ded8ffa11d028313550f9fb3f9dac8b24082c81cb595a440dc36ddc8dce7b650cd120063f6961d562cf2c66b6ac7c42129dd2374d8a603109c2e9a301be




3. 검은건반과 흰건반이 완전히 갈린 123 / 4567 완전분할


viewimage.php?id=3fb5c932eddf3fa763ba&no=24b0d769e1d32ca73ded8ffa11d028313550f9fb3f9dac8b24082c81cb595a440dc36ddc8dce7b650cd120063f6961d562cf2c66b6ac7c42129d8430158433346faeee35c927


근데 저 아직 이 노래 한번도 안해봐슴

사실 잘모름 ㅎ

추천 비추천

0

고정닉 0

0

댓글 영역

전체 리플 0
등록순정렬 기준선택

하단 갤러리 리스트 영역

왼쪽 컨텐츠 영역

갤러리 리스트 영역

갤러리 리스트
번호 제목 글쓴이 작성일 조회 추천
이슈 월간디시 8월호 : 반갑다 논란아 운영자 20/07/31 - -
설문 '나 5cm만 주라' 키 커서 부러운 여자 아이돌은? 운영자 20/08/04 - -
공지 리듬게임에 관련된 사진과 내용을 올려주시기 바랍니다. [745] 운영자 06.08.29 10673530 207
11140321 큐엠에이신기체요 니엔테갤로그로 이동합니다. 11:06 0 0
11140320 이치카 사볼곡 비트10판하면 되는건가 니엔테갤로그로 이동합니다. 11:05 2 0
11140319 따스 이제 한아이디 멀티카드 지원하는거임? 88(121.133) 11:04 7 0
11140318 아니 코나스테에 QMA가 있었네 [3] .민초갤로그로 이동합니다. 11:00 31 0
11140317 에러뜨네 개씨발게임 [2] Flexin(210.91) 10:59 32 0
11140316 날씨 미쳣나봐진짜 [3] faceless갤로그로 이동합니다. 10:58 27 0
11140315 따스 레겐도 있나.. [1] yen(175.223) 10:58 33 0
11140314 스파클링 스마일? 이거 통상?? [1] ㅇㅇ(223.33) 10:56 21 0
11140313 따스 카드 등록 뭐임?? [1] yen(110.70) 10:54 40 0
11140312 따스 이어뮤 참조하는거보니까 데이터연동하는건가 [2] Flexin(210.91) 10:52 59 0
11140311 날씨가 좋다못해 너무 좋아서 화나네 [3] 츠다냥갤로그로 이동합니다. 10:51 38 0
11140310 씨발 딱기다려라 ㅋㅋㅋㅋㅋ [8] Flexin(210.91) 10:50 74 0
11140309 배가고파요 [4] 옾션갤로그로 이동합니다. 10:48 39 0
11140308 새로운 따스 홈 [2] yen(175.223) 10:43 77 0
11140307 인투더매드니스 dp 보니까 이거 생각남 츠다냥갤로그로 이동합니다. 10:42 22 0
11140306 안녕병신들아 [4] 이잌(116.35) 10:41 50 0
11140305 뺌스 따스 오스 맥스 mdt갤로그로 이동합니다. 10:38 22 0
11140304 벨플풀콤 [5] 바나리11갤로그로 이동합니다. 10:37 53 5
11140303 오늘 폭우라는데 오락실을가야하나 [1] RaFan갤로그로 이동합니다. 10:34 23 0
11140302 매드니스근데 중약 연습하기 괴 좋아보이는데 일부는시즈모드됐고일부는통통통통갤로그로 이동합니다. 10:33 24 0
11140301 븜스 따스 오스 [1] 고간갤로그로 이동합니다. 10:33 32 0
11140300 노량진 대여가 자유롭긴 하네 [2] ㅇㅇ(110.70) 10:29 57 0
11140299 개인적으로 디스컨트롤드갤럭시 기대햇는데 아쉽내 [2] 한혜림갤로그로 이동합니다. 10:29 46 0
11140298 어 갑자기 비트 하러가기 귀찮네.... [5] MKP-04갤로그로 이동합니다. 10:27 45 0
11140297 매드니스 dpa 11.8정도될듯 꼰마갤로그로 이동합니다. 10:26 24 0
11140296 신곡영상이요 [3] 말걸리기장인갤로그로 이동합니다. 10:24 84 0
11140295 신곡 2513 바나리11갤로그로 이동합니다. 10:23 31 0
11140294 따스 홈페이지 다운 배너가 사라짐 [1] ㅇㅈ(116.43) 10:19 62 0
11140292 아무도 안궁금해하는 DDR이요 [1] RottenBlotch갤로그로 이동합니다. 10:17 72 0
11140291 이번주 토요일 주작왕 예약잡았다 끼요오오옷 [2] 뉴욕대공황갤로그로 이동합니다. 10:17 52 0
11140290 오늘 따스 업뎃 된다고 해도 kinetic갤로그로 이동합니다. 10:16 32 0
11140289 따스는대체누가이름붙인거. [2] blurtic갤로그로 이동합니다. 10:16 87 0
11140288 아 시발 주안 좆됐네 ㅇㅇ(110.70) 10:15 38 0
11140287 따스 결국 10시에 없뎃 [1] kinetic갤로그로 이동합니다. 10:14 51 0
11140286 와 사볼 저거 노래 개좋은데 [1] ㅁㅁ갤로그로 이동합니다. 10:14 51 0
11140285 아침으로 음식 500그램은 때리부은듯 [1] 5123874갤로그로 이동합니다. 10:14 24 0
11140284 인투더매드니스빡세다 [4] 말걸리기장인갤로그로 이동합니다. 10:12 77 0
11140283 따스 런처 다운로드페이지 내려갔네 십 ㅋㅋㅋ [3] Flexin(210.91) 10:11 69 0
11140282 꺼어어어어어억ㅋㅋㅋㅋㅋㅋ [4] RottenBlotch갤로그로 이동합니다. 10:11 63 1
11140281 11랩 뭐냐 신곡 [2] 바나리11갤로그로 이동합니다. 10:05 83 0
11140280 인투더매드니스 작곡가 근황 RottenBlotch갤로그로 이동합니다. 10:05 65 0
11140279 콘마이 일안해????? [1] Flexin(210.91) 10:05 40 0
11140278 디디알 서드 산 사람이 있긴있네 [1] ㅇㅇ(59.28) 10:05 62 0
11140277 매드니스 뭔곡임 [2] xiPOId갤로그로 이동합니다. 10:04 50 0
11140276 신곡 레벨 떳다고함 [3] 츠다냥갤로그로 이동합니다. 10:04 90 1
11140275 차 사고 3년 86000키로 탔는데요 [5] 팥2(39.7) 10:04 43 0
11140274 Into the Madness 11렙 [1] ㅇㅇ(61.254) 10:03 41 0
11140273 개빡치네시발ㅋㅋ [4] 말걸리기장인갤로그로 이동합니다. 10:03 54 0
11140272 여러분의 의견에 따라 오락실을 안가기로 결정했습니다.. [4] 꼰마갤로그로 이동합니다. 10:02 61 0
갤러리 내부 검색
전체게시물 정렬 옵션

오른쪽 컨텐츠 영역

이슈줌NEW

1/6

힛(HIT)NEW

그때 그 힛

1/3